DW9727 Weather Reports


time (UTC)temp
C
wind
direction
speed
KPH
gust
KPH
rain 1hr
cm
rain 24hr
cm
rain mn
cm
humidity
%
barometer
mb
20260904053711 26 169 9.7 19.3 0.00 0.00 0.00 70 1005.6
20260904052710 26 198 8.0 12.9 0.00 0.00 0.00 70 1005.6
20260904050711 27 177 6.4 14.5 0.00 0.00 0.00 69 1005.6
20260904045711 27 182 4.8 11.3 0.00 0.00 0.00 69 1005.6
20260904044711 27 177 4.8 9.7 0.00 0.00 0.00 68 1005.7
20260904043710 27 194 3.2 9.7 0.00 0.00 0.00 68 1005.9
20260904042711 27 186 3.2 11.3 0.00 0.00 0.00 68 1005.8
20260904041710 28 171 1.6 4.8 0.00 0.00 0.00 67 1005.9
20260904040710 28 191 4.8 22.5 0.00 0.00 0.00 67 1005.8
20260904035711 28 198 8.0 14.5 0.00 0.00 0.00 66 1005.7
20260904033710 28 150 4.8 16.1 0.00 0.00 0.00 65 1005.7
20260904032710 29 178 4.8 12.9 0.00 0.00 0.00 65 1005.8
20260904031711 29 149 3.2 9.7 0.00 0.00 0.00 65 1005.7
20260904030711 29 159 3.2 8.0 0.00 0.00 0.00 65 1005.8
20260904025710 30 164 3.2 12.9 0.00 0.00 0.00 65 1005.6
20260904024711 30 142 1.6 8.0 0.00 0.00 0.00 65 1005.6
20260904021710 30 142 4.8 9.7 0.00 0.00 0.00 64 1005.4
20260904020710 30 150 1.6 4.8 0.00 0.00 0.00 64 1005.3
20260904015711 31 63 1.6 3.2 0.00 0.00 0.00 63 1005.1
20260904014710 31 95 0.0 4.8 0.00 0.00 0.00 62 1004.9
20260904013710 31 123 4.8 11.3 0.00 0.00 0.00 62 1004.8
20260904012710 31 141 4.8 12.9 0.00 0.00 0.00 62 1004.7
20260904010710 32 145 3.2 11.3 0.00 0.00 0.00 60 1004.4
20260904005711 32 109 4.8 14.5 0.00 0.00 0.00 59 1004.3
20260904004711 33 155 6.4 14.5 0.00 0.00 0.00 57 1004.3
20260904003711 33 152 4.8 9.7 0.00 0.00 0.00 56 1004.4
20260904002711 33 173 4.8 11.3 0.00 0.00 0.00 55 1004.3
20260904001710 33 144 4.8 9.7 0.00 0.00 0.00 55 1004.2
20260904000711 33 157 4.8 11.3 0.00 0.00 0.00 55 1004.2
20260903235710 33 169 3.2 11.3 0.00 0.00 0.00 55 1004.2
20260903234711 34 178 6.4 14.5 0.00 0.00 0.00 54 1004.2
20260903233711 34 175 8.0 14.5 0.00 0.00 0.00 53 1004.2
20260903232710 35 196 9.7 19.3 0.00 0.00 0.00 53 1004.2
20260903231710 35 175 11.3 20.9 0.00 0.00 0.00 52 1004.1
20260903225711 35 188 11.3 19.3 0.00 0.00 0.00 51 1004.0
20260903224711 35 164 11.3 19.3 0.00 0.00 0.00 51 1003.8
20260903223711 35 182 9.7 19.3 0.00 0.00 0.00 52 1003.9
20260903222711 35 217 11.3 14.5 0.00 0.00 0.00 51 1003.9
20260903221710 35 198 8.0 16.1 0.00 0.00 0.00 53 1004.1
20260903220710 35 192 11.3 24.1 0.00 0.00 0.00 51 1004.1
20260903214710 35 214 14.5 19.3 0.00 0.00 0.00 51 1004.2
20260903213710 35 178 12.9 24.1 0.00 0.00 0.00 50 1004.3
20260903211711 35 199 11.3 22.5 0.00 0.00 0.00 50 1004.4
20260903210711 35 178 12.9 19.3 0.00 0.00 0.00 50 1004.4
20260903205711 35 207 8.0 32.2 0.00 0.00 0.00 50 1004.6
20260903204712 35 167 11.3 22.5 0.00 0.00 0.00 51 1004.6
20260903202711 35 142 14.5 22.5 0.00 0.00 0.00 51 1004.8
20260903201711 35 192 9.7 19.3 0.00 0.00 0.00 52 1004.7
20260903195711 34 205 4.8 24.1 0.00 0.00 0.00 55 1004.9
20260903194711 33 225 14.5 22.5 0.00 0.00 0.00 53 1004.9
20260903193710 33 200 11.3 24.1 0.00 0.00 0.00 52 1005.0
20260903192710 33 175 14.5 25.7 0.00 0.00 0.00 52 1005.0
20260903191710 33 184 14.5 24.1 0.00 0.00 0.00 53 1005.1
20260903190710 33 205 11.3 20.9 0.00 0.00 0.00 54 1005.0
20260903184710 32 219 16.1 27.4 0.00 0.00 0.00 55 1005.3
20260903183711 32 209 16.1 27.4 0.00 0.00 0.00 53 1005.5
20260903182711 32 217 14.5 25.7 0.00 0.00 0.00 56 1005.8
20260903181711 32 215 20.9 33.8 0.00 0.00 0.00 55 1006.0
20260903180711 32 217 16.1 32.2 0.00 0.00 0.00 56 1006.1
20260903175710 32 208 17.7 29.0 0.00 0.00 0.00 56 1006.0
20260903174710 32 211 20.9 38.6 0.00 0.00 0.00 56 1006.2
20260903173711 31 196 17.7 32.2 0.00 0.00 0.00 57 1006.1
20260903172711 31 164 16.1 29.0 0.00 0.00 0.00 56 1006.3
20260903170710 31 203 16.1 32.2 0.00 0.00 0.00 58 1006.5
20260903165711 31 203 14.5 27.4 0.00 0.00 0.00 58 1006.6
20260903164710 31 201 12.9 25.7 0.00 0.00 0.00 61 1006.5
20260903163710 30 178 14.5 24.1 0.00 0.00 0.00 61 1006.7
20260903161710 30 178 12.9 29.0 0.00 0.00 0.00 63 1006.7
20260903160711 29 180 12.9 19.3 0.00 0.00 0.00 61 1006.6
20260903155711 29 222 14.5 22.5 0.00 0.00 0.00 62 1006.4
20260903154711 29 173 11.3 20.9 0.00 0.00 0.00 63 1006.3
20260903153710 28 176 14.5 29.0 0.00 0.00 0.00 64 1006.3
20260903152710 28 194 16.1 27.4 0.00 0.00 0.00 64 1006.5
20260903150711 27 208 14.5 25.7 0.00 0.00 0.00 67 1006.3
20260903145710 27 229 16.1 25.7 0.00 0.00 0.00 67 1006.5
20260903142711 26 207 9.7 19.3 0.00 0.00 0.00 72 1007.1
20260903140711 25 205 4.8 11.3 0.00 0.00 0.00 75 1007.2
20260903135711 24 194 8.0 16.1 0.00 0.00 0.00 74 1006.9
20260903134710 25 194 9.7 12.9 0.00 0.00 0.00 74 1007.0
20260903133710 25 213 9.7 12.9 0.00 0.00 0.00 73 1007.0
20260903132710 24 234 8.0 12.9 0.00 0.00 0.00 74 1007.3
20260903131710 24 190 6.4 16.1 0.00 0.00 0.00 76 1007.2
20260903130710 23 204 9.7 14.5 0.00 0.00 0.00 76 1007.0
20260903125710 23 243 3.2 4.8 0.00 0.00 0.00 75 1007.0
20260903124711 23 267 3.2 4.8 0.00 0.00 0.00 74 1006.9
20260903123712 23 220 1.6 4.8 0.00 0.00 0.00 73 1006.5
20260903121711 24 186 3.2 11.3 0.00 0.00 0.00 72 1005.9
20260903115711 24 206 4.8 14.5 0.00 0.00 0.00 71 1005.7
20260903114710 25 180 8.0 16.1 0.00 0.00 0.00 70 1005.6
20260903113710 25 180 8.0 19.3 0.00 0.00 0.00 70 1005.6
20260903112711 25 174 11.3 20.9 0.00 0.00 0.00 69 1005.6
20260903111710 25 185 12.9 27.4 0.00 0.00 0.00 69 1005.4
20260903110711 25 191 14.5 25.7 0.00 0.00 0.00 68 1005.5
20260903105710 25 157 14.5 25.7 0.00 0.15 0.00 68 1005.5
20260903104711 25 182 14.5 25.7 0.00 0.15 0.00 67 1005.4
20260903103711 25 195 12.9 27.4 0.00 0.15 0.00 67 1005.4
20260903102710 25 168 14.5 24.1 0.00 0.15 0.00 67 1005.4
20260903101711 26 188 16.1 32.2 0.00 0.15 0.00 66 1005.3
20260903100710 26 196 12.9 22.5 0.00 0.15 0.00 66 1005.3
20260903095710 26 207 14.5 25.7 0.00 0.15 0.00 65 1005.4
20260903091711 26 175 16.1 33.8 0.00 0.15 0.00 64 1005.4
20260903090711 26 169 16.1 37.0 0.00 0.15 0.00 63 1005.5
20260903085710 26 224 14.5 32.2 0.00 0.15 0.00 63 1005.6
20260903084710 26 199 16.1 32.2 0.00 0.15 0.00 63 1005.7
20260903082710 26 155 19.3 32.2 0.00 0.15 0.00 63 1005.9
20260903081711 26 202 16.1 29.0 0.00 0.15 0.00 63 1005.8
20260903080711 26 192 16.1 32.2 0.00 0.15 0.00 63 1005.9
20260903075711 26 164 14.5 27.4 0.00 0.15 0.00 63 1006.0
20260903074711 26 200 16.1 32.2 0.00 0.15 0.00 63 1006.0
20260903073710 26 163 16.1 27.4 0.00 0.15 0.00 63 1006.2
20260903072711 26 176 14.5 24.1 0.00 0.15 0.00 63 1006.1
20260903071710 26 187 16.1 25.7 0.00 0.15 0.00 63 1006.1
20260903070711 27 192 14.5 24.1 0.00 0.15 0.00 62 1006.3
20260903065710 27 177 16.1 27.4 0.00 0.15 0.00 62 1006.1
20260903064711 27 202 19.3 29.0 0.00 0.15 0.00 62 1006.2
20260903063711 27 188 16.1 25.7 0.00 0.15 0.00 62 1006.3
20260903062711 27 171 14.5 32.2 0.00 0.15 0.00 62 1006.2
20260903061710 27 197 17.7 32.2 0.00 0.15 0.00 61 1006.3
20260903060710 27 172 16.1 24.1 0.00 0.15 0.00 61 1006.2